Quincy, IL

7:32 AM CDT on March 23, 2017 (GMT -0500)
Quincy Regional-Baldwin

Weather History for KUIN - January, 2015

Change the Weather History Date:

Wednesday, January 28, 2015

  Actual Average Record
Temperature  
Mean Temperature 37 °F 27 °F  
Max Temperature 47 °F 35 °F 66 °F (2013)
Min Temperature 27 °F 19 °F -15 °F (1915)
Degree Days  
Heating Degree Days 28 38  
Month to date heating degree days 1055 1084  
Since 1 July heating degree days 3295 3275  
Cooling Degree Days 0 0  
Month to date cooling degree days 0 0  
Year to date cooling degree days 0 0  
Moisture  
Dew Point 29 °F    
Average Humidity 75    
Maximum Humidity 92    
Minimum Humidity 58    
Precipitation  
Precipitation 0.00 in 0.05 in 0.91 in (1909)
Month to date precipitation 0.62 1.38  
Year to date precipitation 0.62 1.38  
Sea Level Pressure  
Sea Level Pressure 30.01 in    
Wind  
Wind Speed 14 mph (SSE)    
Max Wind Speed 22 mph    
Max Gust Speed 29 mph    
Visibility 8 miles    
Events      
T = Trace of Precipitation, MM = Missing Value Source: NWS Daily Summary

Daily Weather History Graph

Daily Weather History Graph

Search for Another Location

Airport or City:

Trip Planner

Search our weather history database for the weather conditions in past years. The results will help you decide how hot, cold, wet, or windy it might be!

Date:

Astronomy

Jan. 28, 2015 Rise Set
Actual Time 7:16 AM CST 5:19 PM CST
Civil Twilight 6:47 AM CST 5:47 PM CST
Nautical Twilight 6:15 AM CST 6:20 PM CST
Astronomical Twilight 5:43 AM CST 6:52 PM CST
Moon 12:23 PM CST (1/28) 1:48 AM CST (1/28)
Length of Visible Light 10h 59m
Length of Day
10h 02m
Waxing Gibbous, 66% of the Moon is Illuminated
Jan 28
Waxing Gibbous
Feb 3
Full
Feb 11
Last Quarter
Feb 18
New
Feb 25
First Quarter

Hourly Weather History & Observations

Time (CST) Temp. Windchill Dew Point Humidity Pressure Visibility Wind Dir Wind Speed Gust Speed Precip Events Conditions
12:54 AM 28.9 °F 20.4 °F 26.1 °F 89% 30.24 in 4.0 mi SE 9.2 mph - N/A   Mostly Cloudy
1:03 AM 28.0 °F 20.0 °F 26.1 °F 92% 30.21 in 4.0 mi SE 8.1 mph - N/A   Scattered Clouds
1:54 AM 28.0 °F 18.6 °F 25.0 °F 88% 30.22 in 5.0 mi ESE 10.4 mph - N/A   Clear
2:54 AM 28.0 °F 19.3 °F 25.0 °F 88% 30.22 in 4.0 mi SE 9.2 mph - N/A   Clear
3:54 AM 28.0 °F 17.5 °F 24.1 °F 85% 30.20 in 5.0 mi SE 12.7 mph - N/A   Clear
4:54 AM 28.0 °F 18.6 °F 24.1 °F 85% 30.20 in 6.0 mi SE 10.4 mph - N/A   Clear
5:54 AM 27.0 °F 16.7 °F 24.1 °F 89% 30.19 in 5.0 mi SE 11.5 mph - N/A   Clear
6:54 AM 28.0 °F 16.5 °F 24.1 °F 85% 30.19 in 5.0 mi SE 15.0 mph - N/A   Clear
7:54 AM 28.0 °F 17.5 °F 25.0 °F 88% 30.17 in 4.0 mi SE 12.7 mph - N/A   Clear
8:54 AM 30.9 °F 19.8 °F 26.1 °F 82% 30.16 in 5.0 mi SSE 16.1 mph 24.2 mph N/A   Haze
9:54 AM 34.0 °F 23.4 °F 27.0 °F 75% 30.14 in 7.0 mi SSE 17.3 mph 25.3 mph N/A   Clear
10:54 AM 37.0 °F 27.0 °F 28.9 °F 73% 30.10 in 9.0 mi SE 18.4 mph - N/A   Clear
11:54 AM 41.0 °F 32.5 °F 30.0 °F 65% 30.06 in 10.0 mi SSE 17.3 mph 24.2 mph N/A   Clear
12:54 PM 42.1 °F 33.6 °F 30.0 °F 62% 30.00 in 10.0 mi South 18.4 mph 26.5 mph N/A   Clear
1:54 PM 43.0 °F 36.0 °F 30.9 °F 62% 29.96 in 10.0 mi SSE 13.8 mph 24.2 mph N/A   Clear
2:54 PM 45.0 °F 37.9 °F 32.0 °F 60% 29.93 in 10.0 mi SSE 16.1 mph 23.0 mph N/A   Clear
3:54 PM 45.0 °F 37.9 °F 32.0 °F 60% 29.89 in 10.0 mi SSE 16.1 mph 27.6 mph N/A   Clear
4:54 PM 44.1 °F 36.5 °F 30.9 °F 60% 29.86 in 10.0 mi SSE 17.3 mph 23.0 mph N/A   Clear
5:54 PM 43.0 °F 36.0 °F 32.0 °F 65% 29.83 in 10.0 mi SSE 13.8 mph - N/A   Clear
6:54 PM 44.1 °F 37.4 °F 32.0 °F 63% 29.81 in 10.0 mi SSE 13.8 mph - N/A   Clear
7:54 PM 45.0 °F 37.9 °F 32.0 °F 60% 29.78 in 10.0 mi SSE 16.1 mph 25.3 mph N/A   Clear
8:54 PM 46.0 °F 39.6 °F 32.0 °F 58% 29.77 in 10.0 mi South 15.0 mph - N/A   Clear
9:54 PM 46.0 °F 39.9 °F 33.1 °F 61% 29.75 in 10.0 mi South 13.8 mph - N/A   Clear
10:54 PM 46.0 °F 39.6 °F 34.0 °F 63% 29.72 in 10.0 mi South 15.0 mph 25.3 mph N/A   Clear
11:54 PM 46.0 °F 39.3 °F 35.1 °F 66% 29.70 in 10.0 mi SSW 16.1 mph - N/A   Clear